星链-1586 (STARLINK-1586 )

导读 | 星芒AI

STARLINK-1586 是 SpaceX Starlink 项目中的一颗低轨通信卫星,属于第 15 批发射的 Starlink 卫星群。该卫星于 2021 年 5 月 28 日由猎鹰 9 号火箭送入近地轨道,旨在为全球用户提供高速互联网服务。它运行在约 550 公里的高度,采用先进的推进和通信技术,支持 Ku 和 Ka 频段。作为 Starlink 网络的一部分,STARLINK-1586 有助于提升网络覆盖与连接速度,尤其在偏远地区。

基本信息
目录编号:
46137
目录名称:
STARLINK-1586
国际标识:
2020-057W
轨道中心:
EARTH
卫星名称:
星链-1586
卫星全名:
星链-1586 (STARLINK-1586 )
卫星状态:
已陨落 最后检测时间 2025-09-26
发射日期:
2020-08-18 UTC
国别 :
美国 (US)
星等 :
--
轨道信息
数据来源 国际轨道数据
星历时间: 2025-09-26T07:38:49+0800
轨道信息已过期81天
半长轴: 6533.04km
偏心率: 0.0003987
轨道倾角: 53.022°
近地点辐角 259.203°
升交点赤经 248.428°
平近点角 100.857°
近地点: 152.3km
远地点: 157.51km
周期: 87.586分钟
每日圈数: 16.441061
详细信息
固有亮度:
5
最大亮度:
2.5
卫星平台:
Starlink V1.0
覆盖范围:
全球
运营商:
太空探索技术公司
运营商所在国:
美国
制造商(研发单位):
太空探索技术公司
制造商所在国:
美国
使用方式:
暂无
卫星简介
星链(Starlink)计划是由太空探索技术公司(SpaceX)提出的一个巨型低轨卫星互联网星座项目,计划在2019年至2024年间在太空搭建由约1.2万颗卫星组成的“星链”网络,其中1584颗将部署在地球上空550千米处的近地轨道,并从2020年开始工作。该卫星仍在工作。